Aeroporto :
LOGIN :

Iscrizione | Disclaimer

   EN    FR    IT 

 










Sommario :    VFR   VFR Marginale   IFR   IFR Intensivo   IFR Molto Intensivo
Visibilità : 
Base nubi : 
>= 8 km
>= 3000ft
5 / 8 km
1000 / 3000 ft
1500m / 5 km
500 / 1000 ft
800 / 1500m
200 / 500 ft
< 800m
< 200 ft
Simboli :   Temporali  Nebbia  Neve Forte  Precipitazioni Forti  Vento > 20 kt
SIGMETs :   Varie  Temporali  Ghiacco  Turbolenza  Onda orograficha  Ceneri Vulcaniche






- Altitudine del aeroporto : 995 ft
- Codice IATA : KTW


EPKT - Katowice

ULTIMO METAR :
  • 012130Z 06001KT CAVOK M04/M09 Q1015

METARs OBSOLETI :
  • 012100Z VRB01KT 8000 NSC M03/M09 Q1016
  • 012030Z 09001KT CAVOK M03/M09 Q1016
  • 012000Z VRB02KT CAVOK M04/M09 Q1016
  • 011930Z 08002KT CAVOK M03/M08 Q1016
  • 011900Z VRB01KT CAVOK M03/M09 Q1016

TAF TAF EPKT
Valido dal 01 a 18 ore il 02 a 18 ore UTC


011730Z 0118/0218 24005KT CAVOK
BECMG 0207/0209 24015KT



MetMap, La meteo Aeronautica in un colpo d'occhio ! - Copyright ORBIFLY Dicembre 2007 - Disclaimer

ORBIFLY MET'MAP TEAM :

Programmazione e sviluppo : Alexandra Zaïnal
Concezione : Baudouin d'Aumeries
Aiuto per la programmazione : Marc-Olivier Méhu
Supporto tecnico e logistico : Manuel Goepfert
Aiuto per la traduzione : Arnaldo La Scala

Contatto : metmap@orbifly.com




FONTI E CREDITI :

   NOAA